User: anonymous   Login
Location: Charleston
(38.3500°N, 81.6330°W)
Time: 17:26:22
(UTC-04:00)
Language:

Cosmos 1812 Rocket - Orbit

View from above orbital plane
View from above orbital plane
View from above satellite
View from above satellite

Ground track
Ground track

The orbit data is extracted from the following two-line orbital elements,

1 17296U 87003B   15238.52264792  .00000150  00000-0  15524-4 0  9996
2 17296 082.5288 282.6107 0017867 235.8992 124.0528 14.83007632545193
Epoch (UTC): 26 August 2015 12:32:36
Eccentricity: 0.0017867
inclination: 82.5288°
perigee height: 607 km
apogee height: 632 km
right ascension of ascending node: 282.6107°
argument of perigee: 235.8992°
revolutions per day: 14.83007632
mean anomaly at epoch: 124.0528°
orbit number at epoch: 54519

The dashed part of the orbit path shows where the satellite is in the earth's shadow,  

DLR